WetterOnline ( https://www.wetteronline.de )

Wetter aktuell Lommel

Aktuelles Wetter: Eindhoven (22m)

6-stündlich | Neueste Meldungen
Ortszeit Temperatur Wetter
Mo, 17.06. 20:00 20.1° C bewölkt
Mo, 17.06. 14:00 19.6° C bewölkt
Mo, 17.06. 8:00 14.7° C leichter Regen
Mo, 17.06. 2:00 13.0° C bedeckt
So, 16.06. 20:00 17.6° C wolkig
So, 16.06. 14:00 15.0° C Regen
So, 16.06. 8:00 14.0° C bedeckt
So, 16.06. 2:00 13.1° C Sprühregen
Ortszeit Temperatur Wetter
Di, 18.06. 1:00 12.6° C bedeckt
Di, 18.06. 0:00 13.1° C bedeckt
Mo, 17.06. 23:00 14.1° C bedeckt
Mo, 17.06. 22:00 16.9° C bedeckt
Mo, 17.06. 21:00 19.2° C bedeckt
Mo, 17.06. 20:00 20.1° C bewölkt
Mo, 17.06. 19:00 20.2° C bewölkt
Ortszeit Relative Feuchte Sichtweite
Mo, 17.06. 20:00 57% 35 km
Mo, 17.06. 14:00 60% 40 km
Mo, 17.06. 8:00 94% 26 km
Mo, 17.06. 2:00 89% 45 km
So, 16.06. 20:00 74% 45 km
So, 16.06. 14:00 84% 11 km
So, 16.06. 8:00 87% 40 km
So, 16.06. 2:00 87% 30 km
Ortszeit Relative Feuchte Sichtweite
Di, 18.06. 1:00 99% 30 km
Di, 18.06. 0:00 94% 35 km
Mo, 17.06. 23:00 88% 14 km
Mo, 17.06. 22:00 75% 45 km
Mo, 17.06. 21:00 62% 45 km
Mo, 17.06. 20:00 57% 35 km
Mo, 17.06. 19:00 57% 35 km
Ortszeit Niederschlagsmenge Niederschlagsart
Mo, 17.06. 20:00 0.1 l/m2 in 12 Std. -
Mo, 17.06. 14:00 0.1 l/m2 in 6 Std. Regenschauer
Mo, 17.06. 8:00 0.0 l/m2 in 12 Std. Regenschauer
Mo, 17.06. 2:00 0.0 l/m2 in 6 Std. Schauer
So, 16.06. 20:00 2 l/m2 in 12 Std. Regenschauer
So, 16.06. 14:00 1 l/m2 in 6 Std. Regenschauer
So, 16.06. 8:00 2 l/m2 in 12 Std. Regenschauer
So, 16.06. 2:00 0.4 l/m2 in 6 Std. Regenschauer
Ortszeit Niederschlagsmenge Niederschlagsart
Di, 18.06. 1:00 0.0 l/m2 in 1 Std. -
Di, 18.06. 0:00 0.0 l/m2 in 1 Std. -
Mo, 17.06. 23:00 0.0 l/m2 in 1 Std. -
Mo, 17.06. 22:00 0.0 l/m2 in 1 Std. -
Mo, 17.06. 21:00 0.0 l/m2 in 1 Std. -
Mo, 17.06. 20:00 0.0 l/m2 in 1 Std. -
Mo, 17.06. 19:00 0.0 l/m2 in 1 Std. -
Ortszeit Stärke Spitze Richtung
km/h Bft. km/h Grad Sektor
Mo, 17.06. 20:00 11 2 32 270° W
Mo, 17.06. 14:00 14 3 29 260° W
Mo, 17.06. 8:00 11 2 18 220° SW
Mo, 17.06. 2:00 7 2 14 180° S
So, 16.06. 20:00 7 2 47 200° S
So, 16.06. 14:00 25 4 43 190° S
So, 16.06. 8:00 18 3 29 190° S
So, 16.06. 2:00 14 3 47 190° S
Ortszeit Stärke Spitze Richtung
km/h Bft. km/h Grad Sektor
Di, 18.06. 1:00 0 0 4 - -
Di, 18.06. 0:00 0 0 4 - -
Mo, 17.06. 23:00 0 0 14 - -
Mo, 17.06. 22:00 4 1 7 200° S
Mo, 17.06. 21:00 4 1 14 270° W
Mo, 17.06. 20:00 11 2 32 270° W
Mo, 17.06. 19:00 11 2 18 250° W
Ortszeit Untergrenze Bedeckung Gattung
total tief tief mittel hoch
Mo, 17.06. 20:00 - 7/8 7/8 - - -
Mo, 17.06. 14:00 - 7/8 7/8 - - -
Mo, 17.06. 8:00 - 8/8 8/8 - - -
Mo, 17.06. 2:00 - 8/8 8/8 - - -
So, 16.06. 20:00 - 6/8 6/8 - - -
So, 16.06. 14:00 - 8/8 5/8 - - -
So, 16.06. 8:00 - 8/8 8/8 - - -
So, 16.06. 2:00 - 8/8 8/8 - - -
Ortszeit Bedeckungsgrad in Achtel und Wolkenuntergrenze
Di, 18.06. 1:00 8
Di, 18.06. 0:00 8
Mo, 17.06. 23:00 8
Mo, 17.06. 22:00 8
Mo, 17.06. 21:00 8
Mo, 17.06. 20:00 7
Mo, 17.06. 19:00 7
Ortszeit Luftdruck NN (hPa) Tendenz (hPa in 3 Std.)
Mo, 17.06. 20:00 1013 + 0,5
Mo, 17.06. 14:00 1012 + 0,6
Mo, 17.06. 8:00 1010 + 1,2
Mo, 17.06. 2:00 1009 + 1,0
So, 16.06. 20:00 1007 + 0,7
So, 16.06. 14:00 1006 + 0,1
So, 16.06. 8:00 1006 + 0,2
So, 16.06. 2:00 1006 fallend
Ortszeit Luftdruck NN (hPa) Tendenz (hPa in 3 Std.)
Di, 18.06. 1:00 1015 + 0,9
Di, 18.06. 0:00 1014 + 1,2
Mo, 17.06. 23:00 1014 + 1,2
Mo, 17.06. 22:00 1014 + 1,2
Mo, 17.06. 21:00 1013 + 0,6
Mo, 17.06. 20:00 1013 + 0,5
Mo, 17.06. 19:00 1013 + 0,2
Ortszeit Schneehöhe (cm)
Mo, 17.06. 20:00 -
Mo, 17.06. 14:00 -
Mo, 17.06. 8:00 -
Mo, 17.06. 2:00 -
So, 16.06. 20:00 -
So, 16.06. 14:00 -
So, 16.06. 8:00 -
So, 16.06. 2:00 -
Ortszeit Schneehöhe (cm)
Di, 18.06. 1:00 -
Di, 18.06. 0:00 -
Mo, 17.06. 23:00 -
Mo, 17.06. 22:00 -
Mo, 17.06. 21:00 -
Mo, 17.06. 20:00 -
Mo, 17.06. 19:00 -
Link zu dieser Seite / Seite empfehlen

Das Wetter in ...